RH
58 56 55 54 53 48 44 40 38 38 38 37 34 31 31 33 39 50 55 53 49 46 45 45 47 51 56 61 62 61 60 60 62 65 67 66 66 65 59 53 50 49
58 54 52 53 53 52 49 44 40 37 35 33 31 30 32 33 38 48 52 52 49 45 44 44 44 45 49 56 60 62 61 59 59 62 64 64 65 66 63 57 53 50
61 57 53 50 50 50 48 46 44 40 35 32 30 30 33 33 35 43 48 48 47 45 45 45 45 44 45 49 54 59 59 56 56 57 58 59 61 63 63 60 56 52
66 62 55 49 46 45 45 46 45 41 38 34 29 29 33 35 34 36 41 44 43 44 45 45 46 47 47 48 51 54 54 52 52 55 56 56 57 59 61 61 58 53
66 63 57 49 45 43 43 43 40 35 33 31 28 28 32 36 35 33 36 40 39 39 41 42 44 46 47 48 50 51 51 50 50 53 54 54 54 55 57 60 59 54
67 64 59 52 46 43 40 35 30 29 28 27 27 29 32 35 37 35 34 36 37 36 37 38 41 42 43 45 47 48 49 49 48 49 50 50 51 53 54 57 58 56
66 63 59 54 52 49 42 32 28 27 26 26 27 28 31 33 36 37 36 36 37 36 35 36 38 39 39 40 42 44 45 46 46 47 48 47 48 50 51 53 55 55
61 57 54 53 55 55 49 40 34 29 26 27 27 27 28 30 33 35 36 36 36 35 34 34 36 37 37 38 39 39 40 42 43 44 45 46 47 47 47 49 51 52
59 54 51 53 58 58 54 48 40 34 31 29 28 27 27 29 31 32 32 33 33 33 33 32 33 34 35 37 37 36 36 37 38 39 40 42 43 42 43 45 48 49
61 55 52 55 58 57 54 50 45 40 37 33 30 29 28 28 30 30 30 30 31 31 31 31 31 32 34 36 37 37 36 35 35 35 36 37 38 38 40 42 45 46
61 56 53 52 53 52 50 47 46 43 40 37 33 31 29 29 30 30 29 29 29 29 29 30 30 31 33 34 35 36 37 36 36 36 35 34 35 35 37 39 40 41
63 57 53 50 48 47 44 43 44 43 41 38 35 33 31 29 30 30 28 27 26 27 28 28 30 32 33 33 34 36 38 38 38 37 36 35 35 34 34 36 36 36
66 58 53 50 48 44 42 40 40 42 41 37 34 33 32 31 30 29 27 26 25 26 27 28 29 32 34 36 38 39 39 39 38 37 37 35 35 34 34 35 35 34
66 59 53 50 49 47 44 41 40 41 39 36 35 34 33 30 28 27 26 25 26 26 26 28 30 33 34 37 39 40 40 40 38 38 37 35 33 33 34 35 35 35
67 63 58 55 54 53 50 47 45 44 41 39 37 36 33 30 28 27 26 26 26 26 27 29 32 33 32 33 34 36 36 36 36 37 37 36 35 33 34 35 36 36
68 67 64 61 59 56 54 52 50 50 49 45 41 38 34 31 29 29 28 26 26 27 28 29 31 31 30 29 30 31 32 34 35 35 36 38 40 40 40 38 37 38
69 69 67 66 64 61 59 56 55 55 54 50 46 42 39 35 33 31 29 27 26 27 28 29 29 28 27 28 29 30 33 36 38 39 41 43 45 47 46 44 43 43
69 70 70 70 68 67 65 62 61 62 61 57 51 46 43 40 38 34 30 28 28 27 28 28 27 26 26 28 29 30 34 37 41 45 48 49 49 49 49 48 48 48
69 70 72 72 71 71 70 69 69 67 63 59 54 49 48 45 41 35 31 30 29 28 27 26 25 23 24 25 27 30 35 41 44 47 49 50 51 51 52 52 51 52
68 70 72 73 72 72 72 71 70 66 61 59 57 56 55 50 44 38 34 32 31 28 26 25 23 21 21 24 26 30 36 44 48 50 51 52 52 53 55 55 54 56
68 69 70 71 71 72 72 70 68 64 60 59 59 59 56 50 46 42 37 34 33 32 32 29 25 24 26 28 31 34 40 48 53 55 57 57 57 57 58 58 58 59
66 67 68 69 68 70 71 70 68 65 62 59 57 57 56 54 50 47 44 41 39 40 41 35 30 33 37 38 39 43 49 55 59 60 61 62 62 63 63 63 63 64
63 63 64 65 66 67 68 67 66 65 63 61 59 57 56 54 51 48 46 46 46 47 46 42 39 43 47 48 49 52 57 61 62 63 64 64 65 67 67 68 68 68
59 60 60 61 62 63 63 62 63 62 62 62 61 58 55 53 50 48 46 46 46 46 46 47 48 51 55 57 58 60 62 63 64 65 65 65 66 67 68 69 70 71
56 57 57 57 59 59 59 59 59 59 59 59 60 59 58 56 54 53 50 48 47 45 45 47 50 53 57 61 64 66 66 67 69 69 69 69 68 68 69 70 71 72
54 55 54 55 56 56 56 57 57 57 57 58 59 60 60 60 59 58 56 54 52 51 50 51 52 55 58 62 64 67 68 70 72 72 72 72 71 71 72 72 73 74
Wind_Speed
44 43 43 43 42 41 39 38 36 34 32 29 27 25 24 24 23 22 22 22 21 20 21 21 20 19 18 18 18 18 17 16 15 14 14 15 15 16 17 17 16 15
45 43 42 41 42 42 41 40 37 35 32 29 28 26 24 23 23 23 23 22 21 21 21 22 22 20 19 19 18 18 18 17 17 16 15 15 15 16 17 17 17 17
46 45 43 41 41 42 42 40 39 36 33 31 29 27 25 24 24 23 23 22 21 21 20 21 21 21 21 20 19 19 19 18 17 16 16 16 16 16 17 18 18 18
47 46 44 42 41 41 42 42 41 38 36 33 31 30 28 27 25 24 23 23 22 21 20 20 21 21 22 21 21 21 21 20 18 18 18 17 17 17 17 18 19 19
48 47 45 43 41 41 42 43 42 39 37 35 33 32 31 29 28 27 26 25 24 23 22 21 21 21 22 22 23 23 23 22 21 20 21 20 19 18 18 18 19 20
48 47 46 44 42 42 42 42 41 39 38 36 34 34 33 31 30 29 28 27 26 25 24 23 23 23 23 23 24 25 25 24 23 23 23 23 21 20 19 20 21 21
48 47 46 45 44 43 43 42 40 39 38 36 35 35 34 33 31 30 29 28 27 26 25 25 25 25 25 24 24 26 26 26 25 25 25 24 24 23 22 22 22 23
47 46 46 46 45 45 45 43 42 41 39 38 37 36 35 34 33 32 30 29 28 28 27 26 26 26 26 26 26 26 27 27 27 27 27 26 26 26 25 24 24 25
46 45 46 46 46 46 46 45 44 42 41 40 38 37 36 35 35 34 32 32 31 30 29 29 28 28 27 27 28 28 28 28 28 28 28 27 27 27 26 26 26 26
46 45 46 47 47 47 47 46 45 44 43 42 40 39 38 36 36 35 34 34 33 32 32 31 31 30 29 29 29 29 29 29 29 30 30 29 29 28 27 28 28 28
45 44 45 46 47 47 47 46 45 45 44 43 43 42 40 39 38 37 36 36 35 35 34 33 33 32 31 31 30 30 30 30 30 31 31 31 30 29 29 29 30 30
44 43 44 45 46 46 46 45 45 45 45 44 44 43 43 42 41 40 39 38 37 36 35 35 34 34 33 32 32 32 32 31 31 31 32 32 32 32 31 31 31 31
45 43 42 43 45 46 46 45 45 45 45 44 43 43 44 43 43 42 40 39 38 37 37 37 36 36 36 35 34 34 34 34 33 33 33 33 34 34 33 33 33 33
45 42 41 42 43 45 46 46 46 46 45 44 44 44 44 43 43 42 41 40 40 39 38 38 38 38 38 37 37 36 36 36 35 35 35 35 35 35 35 35 35 34
44 43 42 42 43 45 46 47 47 46 46 45 45 44 44 43 42 42 41 41 41 41 40 40 40 40 40 39 39 38 37 37 37 37 37 37 37 37 36 36 36 36
44 44 43 43 44 45 46 47 47 47 47 46 46 45 44 43 42 42 42 42 42 42 42 42 42 42 41 40 39 39 39 39 39 39 39 40 40 40 39 39 38 38
43 43 44 45 45 46 46 47 47 47 48 47 47 46 45 44 43 43 43 43 43 43 43 44 44 43 42 41 40 39 40 40 41 41 41 42 42 43 42 42 41 41
41 41 42 44 45 46 46 46 46 47 47 48 47 47 46 46 45 44 44 43 43 44 44 44 44 43 42 42 41 40 40 41 42 43 44 44 44 44 44 43 43 43
39 39 40 41 41 43 44 45 46 47 47 48 47 47 46 47 46 45 44 44 44 44 45 45 44 43 42 41 41 40 40 40 42 43 44 44 45 45 45 44 45 45
38 38 39 38 38 38 40 42 44 46 47 47 47 47 47 47 47 46 45 45 45 45 45 44 44 42 41 41 41 40 40 40 41 42 43 44 44 45 45 45 45 45
39 39 38 38 37 37 38 39 41 42 44 45 46 47 48 48 47 47 47 46 46 46 46 46 45 43 42 42 41 40 40 40 41 41 43 43 44 45 45 45 45 46
40 40 39 38 37 38 39 39 39 40 40 42 44 46 47 47 48 48 48 48 47 47 47 47 46 45 44 44 42 41 40 40 41 41 42 43 44 45 45 45 46 46
40 40 40 39 39 39 40 39 39 38 38 39 41 43 45 47 47 48 48 48 48 48 48 48 47 46 45 44 43 41 40 40 40 41 42 43 44 44 44 45 45 46
41 40 40 40 40 41 40 39 39 38 38 38 39 41 42 43 44 45 46 46 47 47 48 48 48 46 46 45 44 42 41 40 40 41 42 43 43 43 43 44 44 44
40 40 40 40 40 40 40 39 39 38 38 38 39 40 40 40 41 42 43 44 45 46 46 47 47 46 46 45 44 42 41 41 40 41 42 43 43 43 43 43 44 44
40 40 40 40 40 39 38 38 39 39 39 40 40 40 40 40 40 41 42 42 43 44 44 45 46 46 45 44 43 42 41 41 41 42 43 43 43 43 44 44 44 43
Wind_Direction
221 221 221 223 224 224 224 224 225 226 227 227 229 230 230 229 225 222 224 227 227 225 223 223 221 219 219 219 221 224 227 229 229 230 231 230 229 230 233 233 234 236
221 221 221 222 223 223 223 224 226 228 230 231 233 234 233 231 228 224 223 225 227 226 224 224 224 223 222 223 224 226 229 230 230 230 231 232 231 230 232 233 234 238
222 222 221 222 223 223 222 223 225 228 231 233 235 237 236 233 230 226 223 224 227 227 225 224 224 225 226 227 228 230 233 234 234 233 233 234 234 233 233 234 236 236
222 223 223 224 224 223 223 223 225 227 230 232 235 237 237 235 233 230 227 227 229 229 229 228 227 226 228 228 230 233 236 239 241 240 239 238 236 237 235 235 237 237
223 224 225 225 224 224 223 223 225 227 229 231 233 235 237 237 235 233 232 232 233 234 234 234 232 229 229 229 230 233 236 239 242 242 244 242 239 239 239 238 239 238
224 225 226 227 225 224 223 224 226 227 228 230 231 233 236 237 237 235 235 236 237 238 237 236 236 233 232 232 232 233 235 238 241 242 244 245 243 242 240 240 241 241
224 226 227 227 227 225 225 225 226 227 228 229 230 232 235 237 237 236 236 238 239 239 238 238 238 237 236 235 233 233 233 236 239 241 243 246 246 245 243 241 241 243
226 228 228 229 228 227 227 227 227 228 229 229 230 232 235 236 237 237 238 239 240 241 240 240 239 239 239 238 236 233 232 233 236 239 241 243 245 246 245 244 243 244
226 229 230 230 229 228 228 228 228 229 230 230 231 233 235 236 237 238 240 242 243 244 243 242 242 241 240 239 238 236 234 233 234 237 240 242 243 245 246 247 247 246
226 228 230 230 229 230 230 230 229 230 230 231 232 234 235 237 237 239 241 243 245 245 245 245 244 243 243 242 242 241 239 237 236 237 240 242 245 247 247 248 249 249
226 229 230 230 231 231 232 232 231 231 231 231 232 234 235 237 238 240 242 244 245 246 246 246 246 245 245 244 245 245 244 242 240 239 240 242 245 248 249 249 250 251
226 228 230 232 233 233 234 234 233 233 233 233 233 233 235 236 238 240 242 244 245 246 247 248 248 248 247 247 248 248 248 248 247 245 243 243 244 246 248 250 251 252
227 228 230 232 234 234 235 235 235 235 234 235 235 234 235 236 238 240 242 243 245 246 247 248 249 249 249 250 250 250 250 251 251 250 249 247 247 247 247 248 250 252
229 231 232 233 234 235 235 236 236 236 236 236 236 236 236 236 238 239 241 243 245 246 247 248 248 249 250 250 251 251 251 252 253 253 253 253 252 251 250 249 249 250
231 232 233 234 234 235 235 236 236 236 237 237 237 237 238 238 238 240 241 243 245 247 248 248 248 248 249 250 251 251 251 253 254 254 255 255 256 256 255 254 253 252
232 233 233 234 235 235 236 237 237 237 236 237 238 239 239 240 240 240 242 244 246 247 248 248 248 249 250 250 251 252 252 254 254 255 257 257 257 258 257 257 257 257
233 234 234 235 235 236 237 238 238 237 237 238 238 239 240 241 241 241 242 244 246 247 248 249 250 251 251 251 252 252 253 254 255 256 257 258 258 259 260 261 261 261
234 235 236 236 237 237 238 238 238 238 238 238 238 239 240 240 241 242 243 244 246 247 248 250 251 253 254 254 254 254 254 254 255 257 258 259 260 260 262 263 263 264
235 236 236 237 238 239 239 239 238 238 238 238 239 239 239 240 241 242 244 244 245 247 248 251 253 254 255 256 256 257 256 255 255 256 258 260 261 262 263 264 265 266
236 236 237 238 239 239 240 240 239 240 240 240 240 239 238 239 241 242 244 245 246 247 249 251 254 255 256 257 258 258 258 256 256 257 259 260 262 263 264 265 266 266
236 237 238 239 240 240 239 240 241 242 242 241 241 240 239 240 241 242 244 245 247 248 249 252 254 255 256 257 258 259 259 258 258 258 259 260 262 262 263 265 266 267
236 237 238 240 241 240 239 239 240 242 243 243 242 241 241 241 242 243 244 246 247 248 249 252 254 255 256 257 259 260 260 259 259 260 260 261 261 262 263 264 265 266
237 238 239 240 240 240 240 241 242 243 243 243 242 242 242 242 243 244 245 246 248 248 250 252 254 255 255 257 258 259 259 260 260 261 262 263 263 264 264 265 266 266
238 238 240 241 241 241 242 243 244 245 244 244 243 243 244 244 245 246 247 248 249 250 251 253 255 255 255 256 257 258 259 260 260 262 263 264 266 266 266 267 268 268
239 239 240 241 241 242 244 244 246 247 246 246 245 245 246 246 246 247 249 250 251 252 253 255 256 257 257 257 257 258 258 259 260 261 262 263 265 267 267 268 269 270
241 241 241 242 242 242 244 245 246 246 246 246 246 246 246 246 246 248 249 251 252 253 254 255 256 257 257 258 259 259 260 260 260 260 262 263 265 267 268 268 269 270